OK,63,38,839,63,2014-10-01T01:40:00,0,28072609,182820
OK,63,38,839,63,2014-10-01T01:45:00,0,28073056,182820
OK,63,38,839,63,2014-10-01T01:50:00,0,28073505,182820
OK,63,38,839,63,2014-10-01T01:55:00,0,28073822,182820
OK,63,38,839,63,2014-10-01T02:00:00,0,28074271,182820
OK,63,38,839,63,2014-10-01T02:05:00,0,28074713,182820
OK,66,36,839,66,2014-10-01T02:10:00,1,28075160,182820
OK,66,36,839,66,2014-10-01T02:15:00,0,28075609,182820
OK,56,43,839,56,2014-10-01T02:20:00,1,28076003,182820
OK,56,43,839,56,2014-10-01T02:25:00,0,28076441,182820
OK,56,43,839,56,2014-10-01T02:30:00,0,28076890,182820
OK,56,43,839,56,2014-10-01T02:35:00,0,28077339,182820
OK,56,43,839,56,2014-10-01T02:40:00,0,28077744,182820
OK,56,43,839,56,2014-10-01T02:45:00,0,28078191,182820
OK,56,43,839,56,2014-10-01T02:50:00,0,28078636,182820
OK,56,43,839,56,2014-10-01T02:55:00,0,28079085,182820
OK,56,43,839,56,2014-10-01T03:00:00,0,28079527,182820
OK,56,43,839,56,2014-10-01T03:05:00,0,28079976,182820
OK,56,43,839,56,2014-10-01T03:10:00,0,28080313,182820
OK,56,43,839,56,2014-10-01T03:15:00,0,28080759,182820
OK,56,43,839,56,2014-10-01T03:20:00,0,28081208,182820
OK,56,43,839,56,2014-10-01T03:25:00,0,28081655,182820
OK,56,43,839,56,2014-10-01T03:30:00,0,28082104,182820
OK,65,37,839,65,2014-10-01T03:35:00,1,28082540,182820
OK,43,56,839,43,2014-10-01T03:40:00,1,28082970,182820
OK,67,36,839,67,2014-10-01T03:45:00,5,28083418,182820
OK,51,47,839,51,2014-10-01T03:50:00,4,28083867,182820
OK,65,37,839,65,2014-10-01T03:55:00,4,28084310,182820
OK,52,46,839,52,2014-10-01T04:00:00,3,28084738,182820
OK,34,70,839,34,2014-10-01T04:05:00,1,28085182,182820
OK,73,33,839,73,2014-10-01T04:10:00,2,28085628,182820
OK,75,32,839,75,2014-10-01T04:15:00,2,28086076,182820
OK,75,32,839,75,2014-10-01T04:20:00,0,28086519,182820
OK,55,43,839,55,2014-10-01T04:25:00,2,28086967,182820
OK,63,38,839,63,2014-10-01T04:30:00,4,28087412,182820
OK,83,29,839,83,2014-10-01T04:35:00,3,28087861,182820
OK,88,27,839,88,2014-10-01T04:40:00,3,28088289,182820
OK,88,27,839,88,2014-10-01T04:45:00,3,28088734,182820
OK,75,32,839,75,2014-10-01T04:50:00,3,28089166,182820
OK,61,39,839,61,2014-10-01T04:55:00,6,28089613,182820
OK,31,77,839,31,2014-10-01T05:05:00,1,28090062,182820
OK,67,36,839,67,2014-10-01T05:10:00,6,28090855,182820
OK,66,36,839,66,2014-10-01T05:15:00,3,28091304,182820
OK,72,33,839,72,2014-10-01T05:20:00,4,28091724,182820
OK,79,30,839,79,2014-10-01T05:25:00,3,28092170,182820
OK,129,18,839,129,2014-10-01T05:30:00,8,28092615,182820
OK,129,18,839,129,2014-10-01T05:35:00,8,28093056,182820
OK,143,16,839,143,2014-10-01T05:40:00,5,28093486,182820
OK,151,15,839,151,2014-10-01T05:45:00,6,28093935,182820
OK,173,13,839,173,2014-10-01T05:50:00,5,28094350,182820
OK,154,15,839,154,2014-10-01T05:55:00,6,28094791,182820
OK,175,13,839,175,2014-10-01T06:00:00,9,28095238,182820
OK,166,14,839,166,2014-10-01T06:05:00,9,28095687,182820
OK,149,16,839,149,2014-10-01T06:10:00,4,28096102,182820
OK,156,15,839,156,2014-10-01T06:15:00,5,28096549,182820
OK,151,15,839,151,2014-10-01T06:20:00,9,28096986,182820
OK,151,15,839,151,2014-10-01T06:25:00,13,28097432,182820
OK,156,15,839,156,2014-10-01T06:30:00,14,28097881,182820
OK,154,15,839,154,2014-10-01T06:35:00,12,28098320,182820
OK,147,16,839,147,2014-10-01T06:40:00,9,28098763,182820
OK,147,16,839,147,2014-10-01T06:45:00,9,28099210,182820
OK,149,16,839,149,2014-10-01T06:50:00,8,28099556,182820
OK,156,15,839,156,2014-10-01T06:55:00,5,28100002,182820
OK,78,30,839,78,2014-10-01T07:00:00,6,28100312,182820
OK,64,37,839,64,2014-10-01T07:05:00,4,28100758,182820
OK,52,46,839,52,2014-10-01T07:10:00,1,28101131,182820
OK,90,26,839,90,2014-10-01T07:15:00,3,28101578,182820
OK,44,54,839,44,2014-10-01T07:20:00,5,28102015,182820
OK,63,38,839,63,2014-10-01T07:25:00,4,28102463,182820
OK,108,22,839,108,2014-10-01T07:30:00,10,28102895,182820
OK,94,25,839,94,2014-10-01T07:35:00,5,28103337,182820
OK,75,32,839,75,2014-10-01T07:40:00,3,28103783,182820
OK,70,34,839,70,2014-10-01T07:45:00,6,28104227,182820
OK,66,36,839,66,2014-10-01T07:50:00,4,28104669,182820
OK,67,36,839,67,2014-10-01T07:55:00,7,28105113,182820
OK,71,33,839,71,2014-10-01T08:00:00,11,28105555,182820
OK,76,31,839,76,2014-10-01T08:05:00,9,28106002,182820
OK,81,29,839,81,2014-10-01T08:10:00,3,28106440,182820
OK,55,43,839,55,2014-10-01T08:15:00,4,28106847,182820
OK,64,37,839,64,2014-10-01T08:20:00,8,28107277,182820
OK,66,36,839,66,2014-10-01T08:25:00,3,28107726,182820
OK,68,35,839,68,2014-10-01T08:30:00,3,28108165,182820
OK,68,35,839,68,2014-10-01T08:35:00,5,28108614,182820
OK,75,32,839,75,2014-10-01T08:40:00,6,28109044,182820
OK,74,32,839,74,2014-10-01T08:45:00,9,28109491,182820
OK,72,33,839,72,2014-10-01T08:50:00,6,28109836,182820
OK,59,40,839,59,2014-10-01T08:55:00,8,28110283,182820
OK,60,40,839,60,2014-10-01T09:00:00,5,28110707,182820
OK,68,35,839,68,2014-10-01T09:05:00,4,28111155,182820
OK,66,36,839,66,2014-10-01T09:10:00,0,28111584,182820
OK,62,38,839,62,2014-10-01T09:15:00,4,28112033,182820
OK,65,37,839,65,2014-10-01T09:20:00,0,28112375,182820
OK,69,34,839,69,2014-10-01T09:25:00,3,28112823,182820
OK,67,36,839,67,2014-10-01T09:30:00,2,28113249,182820
OK,72,33,839,72,2014-10-01T09:35:00,4,28113696,182820
OK,66,36,839,66,2014-10-01T09:40:00,11,28114128,182820
OK,66,36,839,66,2014-10-01T09:45:00,10,28114577,182820
OK,65,37,839,65,2014-10-01T09:50:00,10,28114932,182820
OK,60,40,839,60,2014-10-01T09:55:00,8,28115380,182820
OK,60,40,839,60,2014-10-01T10:00:00,6,28115794,182820
OK,64,37,839,64,2014-10-01T10:05:00,5,28116241,182820
OK,88,27,839,88,2014-10-01T10:10:00,5,28116651,182820
OK,88,27,839,88,2014-10-01T10:15:00,9,28117098,182820
OK,71,33,839,71,2014-10-01T10:20:00,7,28117524,182820
OK,69,34,839,69,2014-10-01T10:25:00,10,28117972,182820
OK,68,35,839,68,2014-10-01T10:30:00,6,28118417,182820
OK,54,44,839,54,2014-10-01T10:35:00,5,28118864,182820
OK,53,45,839,53,2014-10-01T10:40:00,5,28119308,182820
OK,53,45,839,53,2014-10-01T10:45:00,3,28119756,182820
OK,75,32,839,75,2014-10-01T10:50:00,5,28120204,182820
OK,66,36,839,66,2014-10-01T10:55:00,8,28120653,182820
OK,66,36,839,66,2014-10-01T11:00:00,5,28121037,182820
OK,58,41,839,58,2014-10-01T11:05:00,4,28121485,182820
OK,50,48,839,50,2014-10-01T11:10:00,2,28121924,182820
OK,65,37,839,65,2014-10-01T11:15:00,5,28122372,182820
OK,65,37,839,65,2014-10-01T11:20:00,9,28122814,182820
OK,61,39,839,61,2014-10-01T11:25:00,10,28123262,182820
OK,64,37,839,64,2014-10-01T11:30:00,8,28123695,182820
OK,65,37,839,65,2014-10-01T11:35:00,7,28124143,182820
OK,52,46,839,52,2014-10-01T11:40:00,7,28124548,182820
OK,52,46,839,52,2014-10-01T11:45:00,3,28124994,182820
OK,90,26,839,90,2014-10-01T11:50:00,4,28125423,182820
OK,87,27,839,87,2014-10-01T11:55:00,5,28125872,182820
OK,59,40,839,59,2014-10-01T12:00:00,7,28126225,182820
OK,56,43,839,56,2014-10-01T12:05:00,6,28126673,182820
OK,54,44,839,54,2014-10-01T12:10:00,5,28127122,182820
OK,54,44,839,54,2014-10-01T12:15:00,5,28127571,182820
OK,68,35,839,68,2014-10-01T12:20:00,7,28128000,182820
OK,72,33,839,72,2014-10-01T12:25:00,5,28128448,182820
OK,100,24,839,100,2014-10-01T12:30:00,3,28128883,182820
OK,93,25,839,93,2014-10-01T12:35:00,4,28129332,182820
OK,75,32,839,75,2014-10-01T12:40:00,6,28129767,182820
OK,99,24,839,99,2014-10-01T12:45:00,8,28130215,182820
OK,99,24,839,99,2014-10-01T12:50:00,6,28130644,182820
OK,84,28,839,84,2014-10-01T12:55:00,3,28131092,182820
OK,91,26,839,91,2014-10-01T13:00:00,4,28131530,182820
OK,120,20,839,120,2014-10-01T13:05:00,2,28131978,182820
OK,70,34,839,70,2014-10-01T13:10:00,5,28132417,182820
OK,78,30,839,78,2014-10-01T13:15:00,6,28132863,182820
OK,96,25,839,96,2014-10-01T13:20:00,3,28133301,182820
OK,108,22,839,108,2014-10-01T13:25:00,3,28133750,182820
OK,106,22,839,106,2014-10-01T13:30:00,2,28134189,182820
OK,90,26,839,90,2014-10-01T13:35:00,4,28134638,182820
OK,87,27,839,87,2014-10-01T13:40:00,6,28135058,182820
OK,66,36,839,66,2014-10-01T13:45:00,6,28135506,182820
OK,103,23,839,103,2014-10-01T13:50:00,10,28135943,182820
OK,101,23,839,101,2014-10-01T13:55:00,8,28136392,182820
OK,116,20,839,116,2014-10-01T14:00:00,2,28136832,182820
OK,116,20,839,116,2014-10-01T14:05:00,0,28137281,182820
OK,50,48,839,50,2014-10-01T14:10:00,8,28137715,182820
OK,58,41,839,58,2014-10-01T14:15:00,4,28138164,182820
OK,108,22,839,108,2014-10-01T14:20:00,6,28138593,182820
OK,161,14,839,161,2014-10-01T14:25:00,14,28139041,182820
OK,163,14,839,163,2014-10-01T14:30:00,13,28139453,182820
OK,111,21,839,111,2014-10-01T14:35:00,8,28139901,182820
OK,77,31,839,77,2014-10-01T14:40:00,4,28140344,182820
OK,94,25,839,94,2014-10-01T14:45:00,5,28140792,182820
OK,103,23,839,103,2014-10-01T14:50:00,8,28141219,182820
OK,102,23,839,102,2014-10-01T14:55:00,6,28141667,182820
OK,73,33,839,73,2014-10-01T15:00:00,6,28142096,182820
OK,85,28,839,85,2014-10-01T15:05:00,5,28142544,182820
OK,98,24,839,98,2014-10-01T15:10:00,5,28142972,182820
OK,67,36,839,67,2014-10-01T15:15:00,15,28143420,182820
OK,64,37,839,64,2014-10-01T15:20:00,10,28143868,182820
OK,90,26,839,90,2014-10-01T15:25:00,9,28144317,182820
OK,70,34,839,70,2014-10-01T15:30:00,9,28144741,182820
OK,64,37,839,64,2014-10-01T15:35:00,5,28145152,182820
OK,67,36,839,67,2014-10-01T15:40:00,7,28145601,182820
OK,72,33,839,72,2014-10-01T15:45:00,4,28146050,182820
OK,63,38,839,63,2014-10-01T15:50:00,1,28146499,182820
OK,62,38,839,62,2014-10-01T15:55:00,0,28146911,182820
OK,56,43,839,56,2014-10-01T16:00:00,1,28147351,182820
OK,50,48,839,50,2014-10-01T16:05:00,2,28147800,182820
OK,60,40,839,60,2014-10-01T16:10:00,3,28148202,182820
OK,55,43,839,55,2014-10-01T16:15:00,4,28148650,182820
OK,69,34,839,69,2014-10-01T16:20:00,4,28149090,182820
OK,74,32,839,74,2014-10-01T16:25:00,7,28149538,182820
OK,66,36,839,66,2014-10-01T16:30:00,8,28149965,182820
OK,63,38,839,63,2014-10-01T16:35:00,8,28150413,182820
OK,47,51,839,47,2014-10-01T16:40:00,2,28150832,182820
OK,71,33,839,71,2014-10-01T16:45:00,3,28151280,182820
OK,81,29,839,81,2014-10-01T16:50:00,1,28151729,182820
OK,74,32,839,74,2014-10-01T17:00:00,5,28152178,182820
OK,45,53,839,45,2014-10-01T17:05:00,6,28152624,182820
OK,70,34,839,70,2014-10-01T17:10:00,3,28153071,182820
OK,62,38,839,62,2014-10-01T17:15:00,3,28153520,182820
OK,82,29,839,82,2014-10-01T17:20:00,3,28153933,182820
OK,57,42,839,57,2014-10-01T17:25:00,3,28154379,182820
OK,63,38,839,63,2014-10-01T17:30:00,5,28154821,182820
OK,63,38,839,63,2014-10-01T17:35:00,5,28155269,182820
OK,81,29,839,81,2014-10-01T17:40:00,4,28155689,182820
OK,92,26,839,92,2014-10-01T17:45:00,0,28156136,182820
OK,74,32,839,74,2014-10-01T17:50:00,2,28156585,182820
OK,78,30,839,78,2014-10-01T17:55:00,3,28157023,182820
OK,62,38,839,62,2014-10-01T18:00:00,2,28157454,182820
OK,45,53,839,45,2014-10-01T18:05:00,1,28157901,182820
OK,63,38,839,63,2014-10-01T18:10:00,2,28158345,182820
OK,73,33,839,73,2014-10-01T18:15:00,2,28158791,182820
OK,69,34,839,69,2014-10-01T18:20:00,3,28159237,182820
OK,69,34,839,69,2014-10-01T18:25:00,3,28159573,182820
OK,64,37,839,64,2014-10-01T18:30:00,0,28160021,182820
OK,64,37,839,64,2014-10-01T18:35:00,0,28160470,182820
OK,78,30,839,78,2014-10-01T18:40:00,1,28160909,182820
OK,44,54,839,44,2014-10-01T18:45:00,3,28161357,182820
OK,44,54,839,44,2014-10-01T18:50:00,1,28161774,182820
OK,80,30,839,80,2014-10-01T18:55:00,0,28162223,182820
OK,80,30,839,80,2014-10-01T19:00:00,0,28162625,182820
OK,38,63,839,38,2014-10-01T19:05:00,1,28163056,182820
OK,38,63,839,38,2014-10-01T19:10:00,1,28163504,182820
OK,38,63,839,38,2014-10-01T19:15:00,0,28163953,182820
OK,38,63,839,38,2014-10-01T19:20:00,0,28164385,182820
OK,38,63,839,38,2014-10-01T19:25:00,0,28164833,182820
OK,38,63,839,38,2014-10-01T19:30:00,0,28165259,182820
OK,38,63,839,38,2014-10-01T19:35:00,0,28165706,182820
OK,68,35,839,68,2014-10-01T19:40:00,1,28166147,182820
OK,68,35,839,68,2014-10-01T19:45:00,1,28166509,182820
OK,46,52,839,46,2014-10-01T19:50:00,1,28166958,182820
OK,54,44,839,54,2014-10-01T19:55:00,2,28167387,182820
OK,41,58,839,41,2014-10-01T20:00:00,2,28167821,182820
OK,41,58,839,41,2014-10-01T20:05:00,2,28168269,182820
OK,91,26,839,91,2014-10-01T20:10:00,1,28168714,182820
OK,171,14,839,171,2014-10-01T20:15:00,1,28169163,182820
OK,91,26,839,91,2014-10-01T20:20:00,0,28169611,182820
OK,91,26,839,91,2014-10-01T20:25:00,0,28170037,182820
OK,91,26,839,91,2014-10-01T20:30:00,0,28170482,182820
OK,91,26,839,91,2014-10-01T20:35:00,0,28170930,182820
OK,91,26,839,91,2014-10-01T20:40:00,0,28171367,182820
OK,91,26,839,91,2014-10-01T20:45:00,0,28171813,182820
OK,91,26,839,91,2014-10-01T20:50:00,0,28172261,182820
OK,91,26,839,91,2014-10-01T20:55:00,0,28172707,182820
OK,91,26,839,91,2014-10-01T21:00:00,0,28173153,182820
OK,91,26,839,91,2014-10-01T21:05:00,0,28173602,182820
OK,91,26,839,91,2014-10-01T21:10:00,0,28174043,182820
OK,91,26,839,91,2014-10-01T21:15:00,0,28174492,182820
OK,71,33,839,71,2014-10-01T21:20:00,1,28174918,182820
OK,74,32,839,74,2014-10-01T21:25:00,2,28175314,182820
OK,77,31,839,77,2014-10-01T21:30:00,0,28175763,182820
OK,38,63,839,38,2014-10-01T21:35:00,1,28176212,182820
OK,38,63,839,38,2014-10-01T21:40:00,1,28176661,182820
OK,38,63,839,38,2014-10-01T21:45:00,0,28177024,182820
OK,38,63,839,38,2014-10-01T21:50:00,0,28177457,182820
OK,38,63,839,38,2014-10-01T21:55:00,0,28177903,182820
OK,38,63,839,38,2014-10-01T22:00:00,0,28178352,182820
OK,38,63,839,38,2014-10-01T22:05:00,0,28178799,182820
OK,38,63,839,38,2014-10-01T22:10:00,0,28179234,182820
OK,45,53,839,45,2014-10-01T22:15:00,0,28179676,182820
OK,45,53,839,45,2014-10-01T22:20:00,0,28180123,182820
OK,45,53,839,45,2014-10-01T22:25:00,0,28180521,182820
OK,45,53,839,45,2014-10-01T22:30:00,0,28180970,182820
OK,45,53,839,45,2014-10-01T22:35:00,0,28181394,182820
OK,45,53,839,45,2014-10-01T22:40:00,0,28181842,182820
OK,45,53,839,45,2014-10-01T22:45:00,0,28182289,182820
OK,45,53,839,45,2014-10-01T22:50:00,0,28182738,182820
OK,45,53,839,45,2014-10-01T22:55:00,0,28183155,182820
OK,45,53,839,45,2014-10-01T23:00:00,0,28183588,182820
OK,45,53,839,45,2014-10-01T23:05:00,0,28184033,182820
OK,45,53,839,45,2014-10-01T23:10:00,0,28184482,182820
OK,55,43,839,55,2014-10-01T23:15:00,0,28184917,182820
OK,55,43,839,55,2014-10-01T23:20:00,0,28185365,182820
OK,55,43,839,55,2014-10-01T23:25:00,0,28185796,182820
OK,55,43,839,55,2014-10-01T23:30:00,0,28186188,182820
OK,55,43,839,55,2014-10-01T23:40:00,0,28187035,182820
OK,55,43,839,55,2014-10-01T23:45:00,0,28187477,182820
OK,55,43,839,55,2014-10-01T23:55:00,0,28188367,182820
OK,55,43,839,55,2014-10-02T00:00:00,0,28188803,182820
OK,55,43,839,55,2014-10-02T00:05:00,0,28189252,182820
OK,55,43,839,55,2014-10-02T00:10:00,0,28189675,182820
OK,55,43,839,55,2014-10-02T00:15:00,0,28190123,182820
OK,55,43,839,55,2014-10-02T00:20:00,0,28190477,182820
OK,55,43,839,55,2014-10-02T00:25:00,0,28190925,182820
OK,55,43,839,55,2014-10-02T00:30:00,0,28191374,182820
OK,55,43,839,55,2014-10-02T00:35:00,0,28191681,182820
OK,55,43,839,55,2014-10-02T00:40:00,0,28192129,182820
OK,55,43,839,55,2014-10-02T00:45:00,0,28192562,182820
OK,55,43,839,55,2014-10-02T00:50:00,0,28193006,182820
OK,55,43,839,55,2014-10-02T00:55:00,0,28193373,182820
OK,55,43,839,55,2014-10-02T01:05:00,0,28194271,182820
OK,55,43,839,55,2014-10-02T01:15:00,0,28194720,182820
OK,55,43,839,55,2014-10-02T01:20:00,0,28195405,182820
OK,55,43,839,55,2014-10-02T01:30:00,0,28195854,182820
OK,55,43,839,55,2014-10-02T01:35:00,0,28196587,182820
OK,55,43,839,55,2014-10-02T01:40:00,0,28197011,182820
OK,66,36,839,66,2014-10-02T01:45:00,0,28197459,182820
OK,66,36,839,66,2014-10-02T01:50:00,0,28197907,182820
OK,66,36,839,66,2014-10-02T01:55:00,0,28198355,182820
OK,66,36,839,66,2014-10-02T02:00:00,0,28198804,182820
OK,39,61,839,39,2014-10-02T02:05:00,0,28199187,182820
OK,39,61,839,39,2014-10-02T02:10:00,0,28199618,182820
OK,39,61,839,39,2014-10-02T02:15:00,0,28200060,182820
OK,39,61,839,39,2014-10-02T02:20:00,0,28200503,182820
OK,39,61,839,39,2014-10-02T02:25:00,0,28200952,182820
OK,39,61,839,39,2014-10-02T02:30:00,0,28201383,182820
OK,39,61,839,39,2014-10-02T02:45:00,0,28202281,182820
OK,39,61,839,39,2014-10-02T02:50:00,0,28202723,182820
OK,39,61,839,39,2014-10-02T02:55:00,0,28203171,182820
OK,39,61,839,39,2014-10-02T03:00:00,0,28203606,182820
OK,39,61,839,39,2014-10-02T03:10:00,0,28204055,182820
OK,39,61,839,39,2014-10-02T03:25:00,0,28204504,182820
OK,39,61,839,39,2014-10-02T03:30:00,0,28204953,182820
OK,62,38,839,62,2014-10-02T03:35:00,2,28205382,182820
OK,67,36,839,67,2014-10-02T03:40:00,0,28205828,182820
OK,68,35,839,68,2014-10-02T03:45:00,5,28206211,182820
OK,68,35,839,68,2014-10-02T03:55:00,0,28207109,182820
OK,68,35,839,68,2014-10-02T04:00:00,0,28207530,182820
OK,68,35,839,68,2014-10-02T04:05:00,0,28207977,182820
OK,45,53,839,45,2014-10-02T04:10:00,1,28208406,182820
OK,45,53,839,45,2014-10-02T04:15:00,0,28208853,182820
OK,73,33,839,73,2014-10-02T04:20:00,1,28209291,182820
OK,73,33,839,73,2014-10-02T04:25:00,0,28209740,182820
OK,72,33,839,72,2014-10-02T04:30:00,2,28210164,182820
OK,73,33,839,73,2014-10-02T04:35:00,0,28210612,182820
OK,77,31,839,77,2014-10-02T04:40:00,1,28211039,182820
OK,77,31,839,77,2014-10-02T04:45:00,1,28211481,182820
OK,77,31,839,77,2014-10-02T04:50:00,0,28211859,182820
OK,70,34,839,70,2014-10-02T04:55:00,4,28212308,182820
OK,148,16,839,148,2014-10-02T05:00:00,1,28212737,182820
OK,81,29,839,81,2014-10-02T05:05:00,1,28213186,182820
OK,81,29,839,81,2014-10-02T05:10:00,0,28213625,182820
OK,69,34,839,69,2014-10-02T05:15:00,2,28214073,182820
OK,75,32,839,75,2014-10-02T05:20:00,1,28214489,182820
OK,75,32,839,75,2014-10-02T05:25:00,0,28214935,182820
OK,75,32,839,75,2014-10-02T05:30:00,0,28215353,182820
OK,105,22,839,105,2014-10-02T05:40:00,4,28215800,182820
OK,110,21,839,110,2014-10-02T05:45:00,0,28216579,182820
OK,110,21,839,110,2014-10-02T05:50:00,0,28217026,182820
OK,172,14,839,172,2014-10-02T05:55:00,10,28217475,182820
OK,148,16,839,148,2014-10-02T06:00:00,10,28217914,182820
OK,173,13,839,173,2014-10-02T06:05:00,5,28218363,182820
OK,162,14,839,162,2014-10-02T06:10:00,2,28218784,182820
OK,175,13,839,175,2014-10-02T06:15:00,9,28219232,182820
OK,151,15,839,151,2014-10-02T06:20:00,10,28219606,182820
OK,164,14,839,164,2014-10-02T06:25:00,17,28220054,182820
OK,161,14,839,161,2014-10-02T06:30:00,11,28220489,182820
OK,151,15,839,151,2014-10-02T06:35:00,7,28220937,182820
OK,85,28,839,85,2014-10-02T06:40:00,9,28221326,182820
OK,83,29,839,83,2014-10-02T06:45:00,12,28221604,182820
OK,99,24,839,99,2014-10-02T07:00:00,12,28222198,182820
OK,124,19,839,124,2014-10-02T07:05:00,13,28222647,182820
OK,130,18,839,130,2014-10-02T07:10:00,8,28223079,182820
OK,114,21,839,114,2014-10-02T07:15:00,0,28223514,182820
OK,114,21,839,114,2014-10-02T07:20:00,0,28223961,182820
OK,89,27,839,89,2014-10-02T07:25:00,2,28224316,182820
OK,89,27,839,89,2014-10-02T07:30:00,2,28224765,182820
OK,51,47,839,51,2014-10-02T07:35:00,6,28225214,182820
OK,60,40,839,60,2014-10-02T07:40:00,1,28225539,182820
OK,81,29,839,81,2014-10-02T07:50:00,12,28226426,182820
OK,79,30,839,79,2014-10-02T07:55:00,8,28226875,182820
OK,79,30,839,79,2014-10-02T08:00:00,0,28227292,182820
OK,81,29,839,81,2014-10-02T08:05:00,4,28227739,182820
OK,91,26,839,91,2014-10-02T08:10:00,0,28228099,182820
OK,82,29,839,82,2014-10-02T08:15:00,2,28228547,182820
OK,90,26,839,90,2014-10-02T08:20:00,0,28228959,182820
OK,68,35,839,68,2014-10-02T08:25:00,2,28229406,182820
OK,67,36,839,67,2014-10-02T08:30:00,1,28229758,182820
OK,75,32,839,75,2014-10-02T08:35:00,3,28230205,182820
OK,77,31,839,77,2014-10-02T08:40:00,0,28230577,182820
OK,77,31,839,77,2014-10-02T08:45:00,0,28231020,182820
OK,66,36,839,66,2014-10-02T08:50:00,4,28231444,182820
OK,58,41,839,58,2014-10-02T08:55:00,2,28231892,182820
OK,72,33,839,72,2014-10-02T09:00:00,4,28232235,182820
OK,82,29,839,82,2014-10-02T09:10:00,0,28232683,182820
OK,41,58,839,41,2014-10-02T09:15:00,0,28233132,182820
OK,41,58,839,41,2014-10-02T09:20:00,0,28233557,182820
OK,70,34,839,70,2014-10-02T09:25:00,5,28234005,182820
OK,110,21,839,110,2014-10-02T09:30:00,0,28234339,182820
OK,86,28,839,86,2014-10-02T09:35:00,3,28234787,182820
OK,158,15,839,158,2014-10-02T09:40:00,0,28235214,182820
OK,74,32,839,74,2014-10-02T09:45:00,7,28235663,182820
OK,68,35,839,68,2014-10-02T09:50:00,3,28236107,182820
OK,106,22,839,106,2014-10-02T09:55:00,3,28236553,182820
OK,108,22,839,108,2014-10-02T10:00:00,2,28236957,182820
OK,108,22,839,108,2014-10-02T10:05:00,0,28237404,182820
OK,108,22,839,108,2014-10-02T10:10:00,0,28237852,182820
OK,69,34,839,69,2014-10-02T10:15:00,1,28238300,182820
OK,78,30,839,78,2014-10-02T10:20:00,4,28238740,182820
OK,79,30,839,79,2014-10-02T10:25:00,5,28239189,182820
OK,159,15,839,159,2014-10-02T10:30:00,0,28239620,182820
OK,81,29,839,81,2014-10-02T10:35:00,5,28240068,182820
OK,83,29,839,83,2014-10-02T10:40:00,2,28240513,182820
OK,60,40,839,60,2014-10-02T10:45:00,1,28240961,182820
OK,60,40,839,60,2014-10-02T10:50:00,1,28241394,182820
OK,79,30,839,79,2014-10-02T10:55:00,5,28241841,182820
OK,79,30,839,79,2014-10-02T11:00:00,3,28242238,182820
OK,79,30,839,79,2014-10-02T11:05:00,0,28242686,182820
OK,86,28,839,86,2014-10-02T11:15:00,1,28243135,182820
OK,119,20,839,119,2014-10-02T11:20:00,2,28243898,182820
OK,81,29,839,81,2014-10-02T11:25:00,1,28244328,182820
OK,81,29,839,81,2014-10-02T11:30:00,0,28244776,182820
OK,75,32,839,75,2014-10-02T11:35:00,6,28245225,182820
OK,74,32,839,74,2014-10-02T11:40:00,0,28245632,182820
OK,48,50,839,48,2014-10-02T11:45:00,0,28246080,182820
OK,66,36,839,66,2014-10-02T11:50:00,4,28246517,182820
OK,61,39,839,61,2014-10-02T11:55:00,4,28246966,182820
OK,56,43,839,56,2014-10-02T12:00:00,4,28247412,182820
OK,73,33,839,73,2014-10-02T12:05:00,2,28247843,182820
OK,73,33,839,73,2014-10-02T12:10:00,0,28248291,182820
OK,59,40,839,59,2014-10-02T12:15:00,5,28248739,182820
OK,56,43,839,56,2014-10-02T12:20:00,3,28249166,182820
OK,99,24,839,99,2014-10-02T12:25:00,4,28249610,182820
OK,111,21,839,111,2014-10-02T12:30:00,3,28250029,182820
OK,47,51,839,47,2014-10-02T12:35:00,4,28250427,182820
OK,51,47,839,51,2014-10-02T12:45:00,6,28251207,182820
OK,47,51,839,47,2014-10-02T13:20:00,3,28251752,182820
OK,40,60,839,40,2014-10-02T13:30:00,5,28252336,182820
OK,40,60,839,40,2014-10-02T13:35:00,4,28252778,182820
OK,40,60,839,40,2014-10-02T13:40:00,0,28253195,182820
OK,65,37,839,65,2014-10-02T13:45:00,6,28253644,182820
OK,50,48,839,50,2014-10-02T13:50:00,6,28254050,182820
OK,113,21,839,113,2014-10-02T13:55:00,4,28254370,182820
OK,117,20,839,117,2014-10-02T14:10:00,10,28254947,182820
OK,71,33,839,71,2014-10-02T14:15:00,7,28255396,182820
OK,111,21,839,111,2014-10-02T14:20:00,6,28255824,182820
OK,113,21,839,113,2014-10-02T14:25:00,2,28256273,182820
OK,121,19,839,121,2014-10-02T14:30:00,7,28256701,182820
OK,107,22,839,107,2014-10-02T14:35:00,9,28257150,182820
OK,97,24,839,97,2014-10-02T14:40:00,5,28257591,182820
OK,137,17,839,137,2014-10-02T14:45:00,5,28258039,182820
OK,124,19,839,124,2014-10-02T14:50:00,5,28258472,182820
OK,98,24,839,98,2014-10-02T14:55:00,5,28258918,182820
OK,53,45,839,53,2014-10-02T15:00:00,3,28259367,182820
OK,132,18,839,132,2014-10-02T15:05:00,5,28259814,182820
OK,85,28,839,85,2014-10-02T15:10:00,3,28260247,182820
OK,85,28,839,85,2014-10-02T15:15:00,3,28260696,182820
OK,86,28,839,86,2014-10-02T15:20:00,2,28261136,182820
OK,42,57,839,42,2014-10-02T15:25:00,3,28261518,182820
OK,39,61,839,39,2014-10-02T15:30:00,2,28261948,182820
OK,70,34,839,70,2014-10-02T15:35:00,6,28262395,182820
OK,70,34,839,70,2014-10-02T15:40:00,4,28262841,182820
OK,49,49,839,49,2014-10-02T15:45:00,3,28263279,182820
OK,75,32,839,75,2014-10-02T15:50:00,0,28263720,182820
OK,75,32,839,75,2014-10-02T15:55:00,0,28264122,182820
OK,75,32,839,75,2014-10-02T16:00:00,0,28264571,182820
OK,60,40,839,60,2014-10-02T16:05:00,3,28265009,182820